When you browse on this site, cookies collect data to enhance your experience and personalize the content and advertising you see.
Visit our Privacy Policy to learn more. By continuing to use the site, you agree to this use of cookies and data.
  • In Germany
  • List of Countries
  • For 7 days
  • Water Temperature
  • Satellite Maps
  • Weather Map
  • Weather Widgets
  • user-avatar
    Login

    Hourly Weather Batina

    Today, 25 May, Saturday

    Time Temperature Precipitation Wind Pressure Humidity
    00:00 +18°C° 0.8 mm 1 mps 667 mmHg 77%
    01:00 +18°C° 3.3 mm 1 mps 667 mmHg 79%
    02:00 +16°C° 3.3 mm 1 mps 666 mmHg 82%
    03:00 +16°C° 3.3 mm 1 mps 666 mmHg 84%
    04:00 +16°C° 4.4 mm 2 mps 666 mmHg 85%
    05:00 +15°C° 4.4 mm 2 mps 666 mmHg 85%
    06:00 +14°C° 4.4 mm 3 mps 666 mmHg 86%
    07:00 +13°C° 2.5 mm 3 mps 666 mmHg 86%
    08:00 +13°C° 2.5 mm 3 mps 666 mmHg 85%
    09:00 +13°C° 2.5 mm 3 mps 666 mmHg 85%
    10:00 +14°C° 0.1 mm 3 mps 667 mmHg 77%
    11:00 +17°C° 0.1 mm 3 mps 667 mmHg 68%
    12:00 +18°C° 0.1 mm 3 mps 667 mmHg 60%
    13:00 +18°C° 0.5 mm 3 mps 667 mmHg 60%
    14:00 +18°C° 0.5 mm 4 mps 666 mmHg 60%
    15:00 +18°C° 0.5 mm 4 mps 666 mmHg 60%
    16:00 +16°C° 1.1 mm 5 mps 666 mmHg 68%
    17:00 +15°C° 1.1 mm 5 mps 666 mmHg 75%
    18:00 +13°C° 1.1 mm 5 mps 665 mmHg 83%
    19:00 +13°C° 0.1 mm 5 mps 666 mmHg 83%
    20:00 +12°C° 0.1 mm 5 mps 666 mmHg 83%
    21:00 +10°C° 0.1 mm 5 mps 666 mmHg 83%
    22:00 +11°C° 0 mm 4 mps 666 mmHg 83%
    23:00 +11°C° 0 mm 4 mps 666 mmHg 82%

    Tomorrow, 26 May, Sunday

    Time Temperature Precipitation Wind Pressure Humidity
    00:00 +10°C° 0 mm 4 mps 666 mmHg 82%
    01:00 +10°C° 0 mm 4 mps 665 mmHg 82%
    02:00 +10°C° 0 mm 4 mps 665 mmHg 83%
    03:00 +10°C° 0 mm 4 mps 665 mmHg 83%
    04:00 +10°C° 0.1 mm 4 mps 665 mmHg 82%
    05:00 +10°C° 0.1 mm 3 mps 665 mmHg 82%
    06:00 +10°C° 0.1 mm 3 mps 665 mmHg 81%
    07:00 +11°C° 0 mm 4 mps 666 mmHg 79%
    08:00 +12°C° 0 mm 4 mps 666 mmHg 76%
    09:00 +12°C° 0 mm 4 mps 666 mmHg 73%
    10:00 +13°C° 0 mm 5 mps 666 mmHg 70%
    11:00 +14°C° 0 mm 5 mps 667 mmHg 67%
    12:00 +14°C° 0 mm 6 mps 667 mmHg 64%
    13:00 +15°C° 0.1 mm 6 mps 667 mmHg 62%
    14:00 +15°C° 0.1 mm 7 mps 667 mmHg 60%
    15:00 +15°C° 0.1 mm 8 mps 667 mmHg 58%
    16:00 +14°C° 0 mm 7 mps 667 mmHg 61%
    17:00 +14°C° 0 mm 7 mps 667 mmHg 65%
    18:00 +13°C° 0 mm 6 mps 666 mmHg 69%
    19:00 +11°C° 0 mm 6 mps 667 mmHg 71%
    20:00 +12°C° 0 mm 5 mps 667 mmHg 73%
    21:00 +11°C° 0 mm 4 mps 667 mmHg 75%
    22:00 +11°C° 0 mm 4 mps 667 mmHg 77%
    23:00 +10°C° 0 mm 4 mps 667 mmHg 79%

    Day after tomorrow, 27 May, Monday

    Time Temperature Precipitation Wind Pressure Humidity
    00:00 +10°C° 0 mm 3 mps 667 mmHg 82%
    01:00 +10°C° 0 mm 3 mps 666 mmHg 83%
    02:00 +10°C° 0 mm 3 mps 666 mmHg 84%
    03:00 +10°C° 0 mm 3 mps 666 mmHg 85%
    04:00 +10°C° 0 mm 3 mps 666 mmHg 82%
    05:00 +10°C° 0 mm 4 mps 666 mmHg 79%
    06:00 +11°C° 0 mm 4 mps 667 mmHg 75%
    07:00 +12°C° 0 mm 4 mps 667 mmHg 71%
    08:00 +13°C° 0 mm 4 mps 668 mmHg 67%
    09:00 +14°C° 0 mm 4 mps 668 mmHg 63%
    10:00 +14°C° 0 mm 4 mps 668 mmHg 63%
    11:00 +14°C° 0 mm 4 mps 668 mmHg 64%
    12:00 +14°C° 0 mm 4 mps 669 mmHg 64%
    13:00 +15°C° 0.1 mm 4 mps 668 mmHg 62%
    14:00 +15°C° 0.1 mm 4 mps 668 mmHg 60%
    15:00 +17°C° 0.1 mm 4 mps 668 mmHg 58%
    16:00 +17°C° 0 mm 4 mps 668 mmHg 59%
    17:00 +16°C° 0 mm 3 mps 668 mmHg 59%
    18:00 +16°C° 0 mm 3 mps 668 mmHg 60%
    19:00 +15°C° 0 mm 2 mps 669 mmHg 64%
    20:00 +14°C° 0 mm 2 mps 669 mmHg 69%
    21:00 +14°C° 0 mm 1 mps 669 mmHg 74%
    22:00 +13°C° 0 mm 1 mps 669 mmHg 76%
    23:00 +13°C° 0 mm 1 mps 669 mmHg 77%

    28 May, Tuesday

    Time Temperature Precipitation Wind Pressure Humidity
    00:00 +12°C° 0 mm 1 mps 669 mmHg 79%
    01:00 +12°C° 0 mm 1 mps 668 mmHg 79%
    02:00 +12°C° 0 mm 1 mps 668 mmHg 79%
    03:00 +12°C° 0 mm 1 mps 668 mmHg 78%
    04:00 +13°C° 0 mm 1 mps 668 mmHg 71%
    05:00 +14°C° 0 mm 1 mps 669 mmHg 65%
    06:00 +15°C° 0 mm 1 mps 670 mmHg 58%
    07:00 +16°C° 0 mm 2 mps 670 mmHg 51%
    08:00 +18°C° 0 mm 2 mps 671 mmHg 44%
    09:00 +20°C° 0 mm 3 mps 671 mmHg 37%
    10:00 +21°C° 0 mm 4 mps 671 mmHg 36%
    11:00 +22°C° 0 mm 5 mps 671 mmHg 34%
    12:00 +23°C° 0 mm 6 mps 671 mmHg 32%
    13:00 +23°C° 0 mm 6 mps 671 mmHg 33%
    14:00 +23°C° 0 mm 6 mps 671 mmHg 33%
    15:00 +23°C° 0 mm 6 mps 670 mmHg 33%
    16:00 +23°C° 0 mm 5 mps 670 mmHg 35%
    17:00 +22°C° 0 mm 4 mps 670 mmHg 37%
    18:00 +22°C° 0 mm 3 mps 670 mmHg 38%
    19:00 +21°C° 0 mm 2 mps 670 mmHg 41%
    20:00 +20°C° 0 mm 2 mps 670 mmHg 44%
    21:00 +19°C° 0 mm 2 mps 670 mmHg 47%
    22:00 +19°C° 0 mm 2 mps 670 mmHg 48%
    23:00 +18°C° 0 mm 2 mps 670 mmHg 49%

    29 May, Wednesday

    Time Temperature Precipitation Wind Pressure Humidity
    00:00 +18°C° 0 mm 2 mps 670 mmHg 50%
    01:00 +18°C° 0 mm 2 mps 669 mmHg 51%
    02:00 +17°C° 0 mm 2 mps 669 mmHg 52%
    03:00 +17°C° 0 mm 2 mps 669 mmHg 53%
    04:00 +18°C° 0 mm 2 mps 670 mmHg 50%
    05:00 +18°C° 0 mm 2 mps 670 mmHg 47%
    06:00 +19°C° 0 mm 2 mps 671 mmHg 44%
    07:00 +21°C° 0 mm 3 mps 671 mmHg 40%
    08:00 +22°C° 0 mm 4 mps 672 mmHg 35%
    09:00 +25°C° 0 mm 5 mps 673 mmHg 30%
    10:00 +25°C° 0 mm 5 mps 673 mmHg 30%
    11:00 +26°C° 0 mm 5 mps 673 mmHg 29%
    12:00 +26°C° 0 mm 5 mps 673 mmHg 29%
    13:00 +26°C° 0 mm 5 mps 672 mmHg 32%
    14:00 +26°C° 0 mm 4 mps 672 mmHg 35%
    15:00 +25°C° 0 mm 4 mps 672 mmHg 38%
    16:00 +22°C° 0.6 mm 4 mps 672 mmHg 49%
    17:00 +21°C° 0.6 mm 4 mps 672 mmHg 60%
    18:00 +19°C° 0.6 mm 4 mps 671 mmHg 70%
    19:00 +17°C° 0.2 mm 5 mps 672 mmHg 75%
    20:00 +16°C° 0.2 mm 5 mps 672 mmHg 80%
    21:00 +15°C° 0.2 mm 5 mps 672 mmHg 85%
    22:00 +14°C° 0.1 mm 5 mps 672 mmHg 85%
    23:00 +14°C° 0.1 mm 4 mps 672 mmHg 86%

    30 May, Thursday

    Time Temperature Precipitation Wind Pressure Humidity
    00:00 +13°C° 0.1 mm 4 mps 672 mmHg 86%
    01:00 +13°C° 0.1 mm 4 mps 672 mmHg 87%
    02:00 +13°C° 0.1 mm 4 mps 672 mmHg 87%
    03:00 +12°C° 0.1 mm 4 mps 672 mmHg 88%
    04:00 +12°C° 0.1 mm 4 mps 672 mmHg 85%
    05:00 +12°C° 0.1 mm 4 mps 673 mmHg 82%
    06:00 +12°C° 0.1 mm 3 mps 673 mmHg 79%
    07:00 +13°C° 0 mm 3 mps 674 mmHg 74%
    08:00 +14°C° 0 mm 3 mps 674 mmHg 68%
    09:00 +16°C° 0 mm 3 mps 674 mmHg 63%
    10:00 +17°C° 0.1 mm 3 mps 674 mmHg 61%
    11:00 +17°C° 0.1 mm 3 mps 674 mmHg 59%
    12:00 +17°C° 0.1 mm 3 mps 674 mmHg 58%
    13:00 +18°C° 0.1 mm 3 mps 674 mmHg 56%
    14:00 +18°C° 0.1 mm 3 mps 674 mmHg 54%
    15:00 +18°C° 0.1 mm 3 mps 674 mmHg 53%
    16:00 +18°C° 0 mm 4 mps 674 mmHg 54%
    17:00 +18°C° 0 mm 4 mps 674 mmHg 56%
    18:00 +17°C° 0 mm 4 mps 674 mmHg 57%
    19:00 +16°C° 0 mm 3 mps 674 mmHg 62%
    20:00 +14°C° 0 mm 3 mps 674 mmHg 67%
    21:00 +14°C° 0 mm 2 mps 674 mmHg 72%
    22:00 +14°C° 0 mm 2 mps 674 mmHg 75%
    23:00 +13°C° 0 mm 2 mps 674 mmHg 78%
    Show more